NORTHEAST SUFFOLK  -  Air Quality Alert Air Quality Alert        NORTHERN NASSAU  -  Air Quality Alert Air Quality Alert        NORTHERN QUEENS  -  Air Quality Alert Air Quality Alert        NORTHWEST SUFFOLK  -  Air Quality Alert Air Quality Alert        SOUTHEAST SUFFOLK  -  Air Quality Alert Air Quality Alert        SOUTHERN NASSAU  -  Air Quality Alert Air Quality Alert        SOUTHERN QUEENS  -  Air Quality Alert Air Quality Alert        SOUTHWEST SUFFOLK  -  Air Quality Alert Air Quality Alert      

Active alerts

Northern Queens
  Details for Northern Queens Air Quality Alert
Southern Queens
  Details for Southern Queens Air Quality Alert
Northern Nassau
  Details for Northern Nassau Air Quality Alert
Southern Nassau
  Details for Southern Nassau Air Quality Alert
Northwest Suffolk
  Details for Northwest Suffolk Air Quality Alert
Southwest Suffolk
  Details for Southwest Suffolk Air Quality Alert
Northeast Suffolk
  Details for Northeast Suffolk Air Quality Alert
Southeast Suffolk
  Details for Southeast Suffolk Air Quality Alert


WXM80 ListenWXM80 Stop

You find our weather info also at:

UK Metoffice

WeatherCloud

Weather Underground

Northeastern Weather Network

AWEKAS

Citizen Weather Observer Program (CWOP)

HAMweather, WeatherForYou, PWS Weather


Weather Underground History page Text

Daily Summary for November 16, 2017 Units:  English    Metric   Both
« Previous Day
Next Day »
Daily Weekly Monthly Yearly Custom
  High: Low: Average:
Temperature: 55.6 °F 45.8 °F 50.9 °F
Dew Point: 53.0 °F 37.0 °F 43.8 °F
Humidity: 96 % 65 % 77 %
Wind Speed: 13.3 mph 0.0 mph 4.3 mph
Wind Gust: 22.0 mph - -
Wind:- - SW
Pressure: 30.05 in 29.62 in -
Precipitation: 0.60 in    
Historical Graphs
 
 
Tabular Data for November 16, 2017
Time Temperature Dew Point Pressure Wind Wind Speed Wind Gust Humidity Rainfall Rate (Hourly)
00:05 46.6 °F 39.8 °F 30.04 in SE 1.4 mph 5.8 mph 77 % 0.00 in
00:10 46.7 °F 39.9 °F 30.04 in SE 1.7 mph 4.6 mph 77 % 0.00 in
00:15 46.8 °F 40.0 °F 30.04 in SE 1.5 mph 5.8 mph 77 % 0.00 in
00:20 46.8 °F 40.0 °F 30.04 in SE 1.0 mph 2.3 mph 77 % 0.00 in
00:25 46.9 °F 40.1 °F 30.03 in SE 3.7 mph 5.0 mph 77 % 0.00 in
00:30 47.0 °F 40.2 °F 30.03 in SE 0.2 mph 6.9 mph 77 % 0.00 in
00:35 47.1 °F 40.3 °F 30.03 in SE 3.1 mph 4.6 mph 77 % 0.00 in
00:40 47.2 °F 40.4 °F 30.05 in SE 3.5 mph 4.6 mph 77 % 0.00 in
00:45 47.3 °F 40.5 °F 30.04 in SSE 3.2 mph 4.6 mph 77 % 0.00 in
00:50 47.4 °F 40.2 °F 30.04 in SSE 2.8 mph 6.9 mph 76 % 0.00 in
00:55 47.4 °F 40.6 °F 30.04 in SSE 1.9 mph 4.0 mph 77 % 0.00 in
01:01 47.5 °F 40.6 °F 30.04 in SE 2.0 mph 8.1 mph 77 % 0.00 in
01:06 47.6 °F 40.4 °F 30.03 in SE 3.0 mph 10.0 mph 76 % 0.00 in
01:11 47.6 °F 40.4 °F 30.04 in SE 2.0 mph 7.0 mph 76 % 0.00 in
01:16 47.7 °F 40.5 °F 30.03 in Calm   4.0 mph 76 % 0.00 in
01:21 47.8 °F 40.6 °F 30.02 in SSE 1.0 mph 2.0 mph 76 % 0.00 in
01:26 47.8 °F 40.9 °F 30.01 in Calm   4.0 mph 77 % 0.00 in
01:31 47.9 °F 41.0 °F 30.02 in South 2.0 mph 6.0 mph 77 % 0.00 in
01:36 47.9 °F 41.0 °F 30.02 in SE 2.9 mph 4.0 mph 77 % 0.00 in
01:41 47.9 °F 41.0 °F 30.01 in SE 1.6 mph 4.0 mph 77 % 0.00 in
01:46 48.0 °F 41.1 °F 30.01 in SE 1.0 mph 4.0 mph 77 % 0.00 in
01:51 48.0 °F 41.2 °F 30.01 in SE 2.0 mph 7.0 mph 77 % 0.00 in
01:56 48.1 °F 41.2 °F 30.01 in SE 3.0 mph 7.0 mph 77 % 0.00 in
02:01 48.1 °F 41.2 °F 30.01 in East 1.8 mph 6.9 mph 77 % 0.00 in
02:06 48.2 °F 41.3 °F 30.01 in SE 2.0 mph 7.0 mph 77 % 0.00 in
02:11 48.2 °F 41.3 °F 30.01 in SE 3.0 mph 6.0 mph 77 % 0.00 in
02:16 48.3 °F 41.4 °F 30.00 in SE 1.0 mph 5.0 mph 77 % 0.00 in
02:21 48.4 °F 41.5 °F 30.00 in SE 3.0 mph 7.0 mph 77 % 0.00 in
02:26 48.4 °F 41.9 °F 30.00 in ESE 1.5 mph 3.5 mph 78 % 0.00 in
02:31 48.4 °F 41.9 °F 30.00 in SE 1.0 mph 4.0 mph 78 % 0.00 in
02:36 48.5 °F 41.9 °F 30.00 in SE 1.0 mph 7.0 mph 78 % 0.00 in
02:41 48.5 °F 42.0 °F 29.99 in Calm   1.0 mph 78 % 0.00 in
02:46 48.5 °F 42.0 °F 29.99 in Calm   2.0 mph 78 % 0.00 in
02:51 48.5 °F 42.0 °F 29.99 in Calm   1.0 mph 78 % 0.00 in
02:56 48.4 °F 41.9 °F 29.98 in Calm   1.0 mph 78 % 0.00 in
03:01 48.4 °F 42.2 °F 29.98 in Calm     79 % 0.00 in
03:06 48.4 °F 42.2 °F 29.98 in Calm   2.0 mph 79 % 0.00 in
03:11 48.4 °F 42.2 °F 29.98 in Calm   2.0 mph 79 % 0.00 in
03:16 48.3 °F 42.1 °F 29.97 in SE 0.6 mph 3.5 mph 79 % 0.00 in
03:21 48.3 °F 42.1 °F 29.97 in SE 1.9 mph 3.5 mph 79 % 0.00 in
03:26 48.3 °F 42.1 °F 29.96 in SE 1.0 mph 6.0 mph 79 % 0.00 in
03:31 48.4 °F 42.5 °F 29.96 in SE 1.0 mph 4.0 mph 80 % 0.00 in
03:36 48.4 °F 42.5 °F 29.96 in SE 2.0 mph 4.0 mph 80 % 0.00 in
03:41 48.4 °F 42.5 °F 29.96 in SSE 3.0 mph 5.0 mph 80 % 0.00 in
03:46 48.5 °F 42.9 °F 29.95 in SSE 2.0 mph 5.0 mph 81 % 0.00 in
03:51 48.5 °F 43.0 °F 29.95 in SE 3.0 mph 6.0 mph 81 % 0.00 in
03:56 48.7 °F 43.1 °F 29.95 in SE 1.0 mph 6.0 mph 81 % 0.00 in
04:01 48.8 °F 43.5 °F 29.94 in SSE 2.3 mph 3.5 mph 82 % 0.00 in
04:06 49.1 °F 43.8 °F 29.94 in SE 2.5 mph 6.0 mph 82 % 0.00 in
04:11 49.4 °F 44.1 °F 29.94 in SE 2.3 mph 4.6 mph 82 % 0.00 in
04:16 49.5 °F 44.2 °F 29.94 in SSE 1.6 mph 3.5 mph 82 % 0.00 in
04:21 49.6 °F 44.3 °F 29.94 in SE 2.3 mph 3.5 mph 82 % 0.00 in
04:26 49.9 °F 44.6 °F 29.94 in SE 5.6 mph 9.2 mph 82 % 0.00 in
04:36 50.6 °F 45.0 °F 29.93 in SE 5.5 mph 13.8 mph 81 % 0.00 in
04:41 50.9 °F 44.9 °F 29.92 in SE 6.6 mph 7.0 mph 80 % 0.00 in
04:47 51.2 °F 45.2 °F 29.92 in SSE 1.8 mph 11.5 mph 80 % 0.00 in
04:52 51.4 °F 45.4 °F 29.92 in SSE 3.3 mph 10.4 mph 80 % 0.00 in
04:57 51.4 °F 45.1 °F 29.92 in SE 3.3 mph 6.0 mph 79 % 0.00 in
05:02 51.5 °F 45.2 °F 29.91 in SSE 3.2 mph 6.9 mph 79 % 0.00 in
05:07 51.6 °F 45.6 °F 29.91 in SSE 5.0 mph 9.2 mph 80 % 0.00 in
05:17 51.7 °F 45.7 °F 29.91 in South 6.7 mph 11.5 mph 80 % 0.00 in
05:22 51.8 °F 45.5 °F 29.91 in SSE 3.1 mph 10.4 mph 79 % 0.00 in
05:27 51.9 °F 45.6 °F 29.91 in SE 6.9 mph 12.0 mph 79 % 0.00 in
05:32 52.0 °F 45.7 °F 29.91 in SSE 10.1 mph 12.0 mph 79 % 0.00 in
05:37 52.0 °F 45.7 °F 29.90 in SSE 5.2 mph 11.0 mph 79 % 0.00 in
05:42 52.0 °F 45.7 °F 29.89 in SSE 4.0 mph 10.4 mph 79 % 0.00 in
05:47 52.0 °F 45.7 °F 29.89 in SE 5.0 mph 8.0 mph 79 % 0.00 in
05:52 52.0 °F 45.7 °F 29.89 in SE 1.4 mph 5.8 mph 79 % 0.00 in
05:57 52.0 °F 45.7 °F 29.89 in SSE 7.3 mph 11.5 mph 79 % 0.00 in
06:02 52.0 °F 45.7 °F 29.89 in SSE 5.2 mph 7.0 mph 79 % 0.00 in
06:07 52.1 °F 45.8 °F 29.89 in SSE 3.8 mph 5.8 mph 79 % 0.00 in
06:12 52.1 °F 45.8 °F 29.89 in South 5.2 mph 9.2 mph 79 % 0.00 in
06:17 52.1 °F 45.8 °F 29.89 in SE 5.0 mph 9.0 mph 79 % 0.00 in
06:22 52.2 °F 45.9 °F 29.88 in SE 2.7 mph 7.0 mph 79 % 0.00 in
06:27 52.3 °F 46.0 °F 29.89 in SSE 2.5 mph 3.5 mph 79 % 0.00 in
06:32 52.3 °F 46.0 °F 29.88 in SSE 4.9 mph 8.1 mph 79 % 0.00 in
06:37 52.4 °F 46.4 °F 29.88 in SSW 1.9 mph 5.8 mph 80 % 0.00 in
06:42 52.4 °F 46.4 °F 29.88 in Calm   3.5 mph 80 % 0.00 in
06:47 52.4 °F 46.7 °F 29.87 in SE 1.2 mph 9.2 mph 81 % 0.00 in
06:52 52.5 °F 47.2 °F 29.87 in SSE 5.1 mph 6.9 mph 82 % 0.00 in
06:58 52.6 °F 47.3 °F 29.87 in South 4.2 mph 11.5 mph 82 % 0.00 in
07:03 52.6 °F 47.6 °F 29.87 in SSE 4.5 mph 9.2 mph 83 % 0.00 in
07:08 52.7 °F 47.7 °F 29.87 in SSE 4.9 mph 9.2 mph 83 % 0.00 in
07:13 52.8 °F 47.8 °F 29.86 in SE 6.2 mph 11.5 mph 83 % 0.00 in
07:18 52.9 °F 48.2 °F 29.86 in SSE 5.3 mph 9.2 mph 84 % 0.00 in
07:23 53.0 °F 48.3 °F 29.86 in SSE 3.0 mph 9.0 mph 84 % 0.00 in
07:28 53.1 °F 48.4 °F 29.85 in SSE 3.3 mph 4.6 mph 84 % 0.00 in
07:33 53.1 °F 48.4 °F 29.85 in SSE 4.5 mph 13.8 mph 84 % 0.00 in
07:38 53.3 °F 48.3 °F 29.85 in SE 4.1 mph 11.5 mph 83 % 0.00 in
07:43 53.4 °F 48.7 °F 29.85 in SE 6.1 mph 8.0 mph 84 % 0.00 in
07:49 53.5 °F 48.8 °F 29.85 in SE 2.3 mph 8.1 mph 84 % 0.00 in
07:54 53.6 °F 49.2 °F 29.85 in ESE 3.2 mph 8.0 mph 85 % 0.00 in
07:59 53.6 °F 49.5 °F 29.87 in WSW 4.9 mph 8.0 mph 86 % 0.00 in
08:04 53.5 °F 49.7 °F 29.88 in NNW 12.1 mph 21.9 mph 87 % 0.04 in
08:09 52.6 °F 48.2 °F 29.87 in SW 5.2 mph 15.0 mph 85 % 0.23 in
08:14 52.2 °F 48.4 °F 29.87 in WSW 1.1 mph 3.5 mph 87 % 0.29 in
08:19 51.9 °F 48.8 °F 29.87 in SSW 1.8 mph 6.9 mph 89 % 0.33 in
08:24 51.8 °F 48.7 °F 29.87 in SW 0.3 mph 2.3 mph 89 % 0.37 in
08:29 51.7 °F 48.9 °F 29.87 in WSW 0.8 mph 3.5 mph 90 % 0.40 in
08:34 51.5 °F 48.7 °F 29.87 in Calm   1.2 mph 90 % 0.42 in
08:39 51.5 °F 49.0 °F 29.86 in WSW 0.2 mph 1.2 mph 91 % 0.43 in
08:44 51.4 °F 48.9 °F 29.86 in Calm     91 % 0.44 in
08:49 51.4 °F 48.9 °F 29.86 in WSW 0.8 mph 2.3 mph 91 % 0.45 in
08:54 51.4 °F 49.2 °F 29.86 in WSW 1.7 mph 3.0 mph 92 % 0.46 in
08:59 51.4 °F 49.4 °F 29.85 in WSW 0.8 mph 3.5 mph 93 % 0.47 in
09:04 51.5 °F 49.5 °F 29.85 in WSW 0.1 mph 1.2 mph 93 % 0.36 in
09:09 51.6 °F 49.9 °F 29.84 in WSW 1.9 mph 3.5 mph 94 % 0.24 in
09:14 51.7 °F 50.0 °F 29.84 in WSW 0.4 mph 2.3 mph 94 % 0.19 in
09:17 51.8 °F 50.1 °F 29.84 in Calm     94 % 0.16 in
09:22 52.1 °F 50.7 °F 29.84 in WSW 0.4 mph 2.0 mph 95 % 0.14 in
09:27 52.5 °F 51.1 °F 29.84 in West 0.2 mph 2.0 mph 95 % 0.11 in
09:38 53.8 °F 52.7 °F 29.83 in WSW 3.0 mph 6.9 mph 96 % 0.08 in
09:43 54.1 °F 53.0 °F 29.83 in West 3.1 mph 9.2 mph 96 % 0.07 in
09:48 54.1 °F 52.7 °F 29.83 in WNW 0.5 mph 6.9 mph 95 % 0.07 in
09:53 54.2 °F 52.8 °F 29.83 in West 5.0 mph 9.0 mph 95 % 0.06 in
09:58 54.2 °F 52.8 °F 29.84 in WSW 2.1 mph 9.0 mph 95 % 0.06 in
10:03 54.2 °F 52.5 °F 29.83 in WSW 3.5 mph 4.6 mph 94 % 0.06 in
10:08 54.1 °F 52.4 °F 29.83 in SW 0.9 mph 8.1 mph 94 % 0.05 in
10:13 54.0 °F 52.3 °F 29.83 in WSW 1.8 mph 3.5 mph 94 % 0.04 in
10:18 54.0 °F 52.3 °F 29.83 in SW 1.5 mph 4.6 mph 94 % 0.05 in
10:23 54.0 °F 52.3 °F 29.82 in WSW 3.3 mph 6.0 mph 94 % 0.04 in
10:28 54.3 °F 52.6 °F 29.82 in SW 2.0 mph 4.0 mph 94 % 0.04 in
10:33 54.5 °F 52.8 °F 29.81 in WSW 4.2 mph 8.1 mph 94 % 0.03 in
10:38 54.6 °F 52.6 °F 29.81 in WSW 1.5 mph 2.3 mph 93 % 0.03 in
10:48 55.0 °F 53.0 °F 29.81 in South 0.3 mph 5.8 mph 93 % 0.03 in
10:53 55.0 °F 53.0 °F 29.80 in West 4.5 mph 7.0 mph 93 % 0.03 in
10:58 55.0 °F 52.7 °F 29.81 in SW 3.9 mph 4.6 mph 92 % 0.02 in
11:03 54.9 °F 52.3 °F 29.80 in SW 3.9 mph 5.8 mph 91 % 0.02 in
11:08 54.9 °F 52.3 °F 29.80 in WNW 0.2 mph 3.5 mph 91 % 0.02 in
11:13 54.8 °F 51.9 °F 29.79 in NW 2.5 mph 4.0 mph 90 % 0.03 in
11:18 54.7 °F 51.8 °F 29.79 in SW 4.1 mph 9.2 mph 90 % 0.02 in
11:24 54.6 °F 51.4 °F 29.79 in SW 5.5 mph 7.0 mph 89 % 0.02 in
11:29 54.5 °F 51.3 °F 29.79 in WSW 0.4 mph 3.5 mph 89 % 0.02 in
11:34 54.5 °F 51.3 °F 29.78 in WSW 2.3 mph 4.6 mph 89 % 0.02 in
11:39 54.5 °F 51.3 °F 29.78 in SW 4.1 mph 6.9 mph 89 % 0.03 in
11:44 54.5 °F 51.0 °F 29.78 in SW 3.5 mph 5.8 mph 88 % 0.02 in
11:49 54.6 °F 51.1 °F 29.77 in WNW 3.0 mph 6.9 mph 88 % 0.02 in
11:54 54.6 °F 51.1 °F 29.77 in WNW 3.6 mph 8.1 mph 88 % 0.02 in
11:59 54.7 °F 50.3 °F 29.77 in WNW 4.5 mph 7.0 mph 85 % 0.02 in
12:04 54.6 °F 49.5 °F 29.77 in West 3.4 mph 6.9 mph 83 % 0.02 in
12:09 54.6 °F 49.5 °F 29.77 in WSW 5.6 mph 9.2 mph 83 % 0.02 in
12:14 54.6 °F 49.5 °F 29.76 in WNW 4.0 mph 5.8 mph 83 % 0.02 in
12:19 54.6 °F 49.5 °F 29.75 in West 3.7 mph 5.8 mph 83 % 0.02 in
12:24 54.7 °F 49.6 °F 29.75 in WNW 4.2 mph 6.9 mph 83 % 0.02 in
12:29 54.7 °F 49.6 °F 29.75 in WNW 3.3 mph 8.1 mph 83 % 0.02 in
12:34 54.8 °F 49.7 °F 29.76 in West 1.8 mph 7.0 mph 83 % 0.02 in
12:39 54.8 °F 49.7 °F 29.75 in West 4.6 mph 6.0 mph 83 % 0.02 in
12:44 54.7 °F 49.3 °F 29.75 in WSW 3.2 mph 5.0 mph 82 % 0.02 in
12:49 54.7 °F 49.3 °F 29.75 in WNW 4.3 mph 10.4 mph 82 % 0.02 in
12:54 54.6 °F 49.2 °F 29.74 in West 4.9 mph 8.1 mph 82 % 0.02 in
12:59 54.6 °F 49.2 °F 29.74 in West 4.1 mph 8.1 mph 82 % 0.03 in
13:04 54.7 °F 49.3 °F 29.74 in SW 1.9 mph 3.5 mph 82 % 0.03 in
13:10 54.8 °F 49.1 °F 29.75 in WSW 6.7 mph 12.7 mph 81 % 0.02 in
13:15 54.8 °F 49.1 °F 29.74 in WSW 3.0 mph 10.4 mph 81 % 0.02 in
13:17 54.8 °F 49.1 °F 29.74 in WSW 3.8 mph 6.9 mph 81 % 0.02 in
13:22 55.0 °F 49.3 °F 29.75 in WNW 3.3 mph 6.9 mph 81 % 0.02 in
13:27 55.1 °F 49.0 °F 29.74 in SW 4.4 mph 8.1 mph 80 % 0.02 in
13:32 55.3 °F 49.2 °F 29.74 in SW 5.2 mph 8.1 mph 80 % 0.02 in
13:37 55.3 °F 48.9 °F 29.74 in West 1.9 mph 8.1 mph 79 % 0.01 in
13:38 55.3 °F 48.9 °F 29.74 in WNW 2.4 mph 5.8 mph 79 % 0.01 in
13:43 55.3 °F 48.9 °F 29.74 in South 3.0 mph 8.1 mph 79 % 0.01 in
13:48 55.2 °F 48.5 °F 29.74 in SW 4.9 mph 9.2 mph 78 % 0.01 in
13:53 55.3 °F 48.9 °F 29.73 in WSW 3.9 mph 4.6 mph 79 % 0.01 in
13:58 55.3 °F 48.6 °F 29.73 in SW 3.3 mph 6.9 mph 78 % 0.00 in
14:03 55.4 °F 48.0 °F 29.73 in SW 3.5 mph 9.2 mph 76 % 0.00 in
14:08 55.5 °F 47.7 °F 29.73 in WSW 6.9 mph 11.5 mph 75 % 0.00 in
14:13 55.6 °F 47.1 °F 29.72 in SW 6.1 mph 16.1 mph 73 % 0.00 in
14:18 55.5 °F 47.0 °F 29.72 in WNW 4.9 mph 8.1 mph 73 % 0.00 in
14:23 55.5 °F 45.9 °F 29.72 in SSW 5.1 mph 6.0 mph 70 % 0.00 in
14:28 55.4 °F 45.0 °F 29.72 in SW 6.4 mph 9.2 mph 68 % 0.00 in
14:33 55.4 °F 45.0 °F 29.73 in SW 4.8 mph 11.5 mph 68 % 0.00 in
14:38 55.3 °F 44.5 °F 29.73 in West 6.6 mph 11.5 mph 67 % 0.00 in
14:43 55.2 °F 44.0 °F 29.73 in SW 3.0 mph 10.4 mph 66 % 0.00 in
14:48 55.1 °F 44.3 °F 29.73 in SW 5.9 mph 9.0 mph 67 % 0.00 in
14:53 55.1 °F 44.7 °F 29.73 in West 2.9 mph 10.4 mph 68 % 0.00 in
14:58 55.1 °F 44.7 °F 29.73 in West 3.4 mph 3.5 mph 68 % 0.00 in
15:03 55.1 °F 45.5 °F 29.73 in West 2.5 mph 4.6 mph 70 % 0.00 in
15:09 55.0 °F 45.4 °F 29.73 in SSW 6.4 mph 8.0 mph 70 % 0.00 in
15:14 54.8 °F 44.4 °F 29.73 in SSW 6.4 mph 18.4 mph 68 % 0.00 in
15:19 54.7 °F 44.3 °F 29.74 in SW 8.0 mph 17.3 mph 68 % 0.00 in
15:24 54.5 °F 43.8 °F 29.74 in SW 7.7 mph 15.0 mph 67 % 0.00 in
15:29 54.4 °F 44.1 °F 29.75 in SW 8.0 mph 19.6 mph 68 % 0.00 in
15:34 54.2 °F 43.1 °F 29.75 in SW 8.8 mph 16.1 mph 66 % 0.00 in
15:39 53.9 °F 42.8 °F 29.75 in SW 6.6 mph 14.0 mph 66 % 0.00 in
15:44 53.7 °F 42.6 °F 29.75 in WSW 7.8 mph 15.0 mph 66 % 0.00 in
15:49 53.5 °F 42.8 °F 29.75 in West 4.1 mph 11.5 mph 67 % 0.00 in
15:54 53.2 °F 42.1 °F 29.75 in NW 5.7 mph 13.8 mph 66 % 0.00 in
15:59 53.0 °F 41.9 °F 29.75 in South 6.4 mph 11.5 mph 66 % 0.00 in
16:04 52.8 °F 41.4 °F 29.75 in West 3.3 mph 11.5 mph 65 % 0.00 in
16:08 52.7 °F 41.3 °F 29.75 in WSW 5.3 mph 11.5 mph 65 % 0.00 in
16:13 52.6 °F 41.2 °F 29.75 in SW 8.4 mph 15.0 mph 65 % 0.00 in
16:18 52.5 °F 41.1 °F 29.76 in WSW 8.9 mph 13.8 mph 65 % 0.00 in
16:23 52.4 °F 41.4 °F 29.76 in WNW 5.1 mph 10.0 mph 66 % 0.00 in
16:28 52.3 °F 41.3 °F 29.76 in NW 4.5 mph 11.5 mph 66 % 0.00 in
16:33 52.2 °F 41.2 °F 29.77 in WSW 6.1 mph 15.0 mph 66 % 0.00 in
16:38 52.1 °F 41.5 °F 29.77 in WSW 7.6 mph 15.0 mph 67 % 0.00 in
16:43 51.9 °F 40.9 °F 29.78 in West 9.9 mph 12.7 mph 66 % 0.00 in
16:48 51.7 °F 40.7 °F 29.78 in WSW 13.3 mph 21.9 mph 66 % 0.00 in
16:53 51.4 °F 40.4 °F 29.79 in West 6.9 mph 19.6 mph 66 % 0.00 in
16:58 51.2 °F 40.2 °F 29.79 in WSW 8.9 mph 13.8 mph 66 % 0.00 in
17:03 50.9 °F 40.3 °F 29.79 in WNW 5.9 mph 12.7 mph 67 % 0.00 in
17:08 50.6 °F 39.3 °F 29.80 in WNW 8.4 mph 19.6 mph 65 % 0.00 in
17:13 50.4 °F 39.1 °F 29.80 in West 9.4 mph 17.3 mph 65 % 0.00 in
17:18 50.2 °F 39.3 °F 29.80 in West 9.4 mph 11.0 mph 66 % 0.00 in
17:24 50.1 °F 39.6 °F 29.80 in WSW 8.6 mph 17.3 mph 67 % 0.00 in
17:28 50.0 °F 39.1 °F 29.80 in NW 7.4 mph 11.5 mph 66 % 0.00 in
17:33 49.9 °F 39.0 °F 29.80 in North 6.9 mph 18.4 mph 66 % 0.00 in
17:38 49.8 °F 39.7 °F 29.80 in West 7.9 mph 14.0 mph 68 % 0.00 in
17:43 49.6 °F 39.5 °F 29.81 in WNW 4.7 mph 9.2 mph 68 % 0.00 in
17:48 49.5 °F 39.4 °F 29.81 in WNW 6.4 mph 12.7 mph 68 % 0.00 in
17:53 49.4 °F 39.7 °F 29.81 in WSW 7.8 mph 13.0 mph 69 % 0.00 in
17:58 49.3 °F 39.6 °F 29.81 in WNW 8.9 mph 11.5 mph 69 % 0.00 in
18:08 49.2 °F 39.8 °F 29.81 in West 2.0 mph 5.8 mph 70 % 0.00 in
18:14 49.2 °F 39.8 °F 29.81 in West 6.7 mph 13.8 mph 70 % 0.00 in
18:19 49.0 °F 39.3 °F 29.81 in West 5.8 mph 10.4 mph 69 % 0.00 in
18:24 49.0 °F 39.3 °F 29.82 in WNW 5.5 mph 9.2 mph 69 % 0.00 in
18:29 48.9 °F 39.2 °F 29.82 in West 3.2 mph 10.4 mph 69 % 0.00 in
18:34 48.8 °F 39.1 °F 29.82 in West 9.4 mph 22.0 mph 69 % 0.00 in
18:39 48.8 °F 38.7 °F 29.82 in WSW 6.1 mph 10.4 mph 68 % 0.00 in
18:44 48.8 °F 39.1 °F 29.82 in West 4.4 mph 10.4 mph 69 % 0.00 in
18:49 48.7 °F 39.0 °F 29.82 in WNW 8.0 mph 17.0 mph 69 % 0.00 in
18:54 48.7 °F 39.0 °F 29.82 in SW 6.9 mph 11.5 mph 69 % 0.00 in
18:59 48.6 °F 38.9 °F 29.82 in West 6.7 mph 11.5 mph 69 % 0.00 in
19:04 48.6 °F 38.5 °F 29.83 in West 5.9 mph 9.2 mph 68 % 0.00 in
19:09 48.6 °F 38.5 °F 29.83 in West 5.9 mph 10.4 mph 68 % 0.00 in
19:14 48.6 °F 38.5 °F 29.83 in WNW 2.2 mph 7.0 mph 68 % 0.00 in
19:19 48.6 °F 38.5 °F 29.83 in WSW 4.8 mph 9.2 mph 68 % 0.00 in
19:24 48.6 °F 38.5 °F 29.83 in WNW 4.8 mph 11.5 mph 68 % 0.00 in
19:29 48.6 °F 38.5 °F 29.84 in WSW 5.4 mph 8.1 mph 68 % 0.00 in
19:34 48.6 °F 38.5 °F 29.83 in NW 7.1 mph 12.7 mph 68 % 0.00 in
19:39 48.6 °F 38.5 °F 29.83 in West 7.3 mph 14.0 mph 68 % 0.00 in
19:44 48.6 °F 38.5 °F 29.84 in WSW 6.4 mph 12.7 mph 68 % 0.00 in
19:49 48.6 °F 38.5 °F 29.87 in WNW 4.4 mph 11.5 mph 68 % 0.00 in
19:54 48.6 °F 38.1 °F 29.87 in WNW 8.9 mph 19.6 mph 67 % 0.00 in
19:59 48.5 °F 38.4 °F 29.84 in WNW 9.7 mph 10.4 mph 68 % 0.00 in
20:00 48.5 °F 38.4 °F 29.84 in WNW 9.7 mph 10.4 mph 68 % 0.00 in
20:05 48.5 °F 38.0 °F 29.83 in WSW 8.2 mph 15.0 mph 67 % 0.00 in
20:10 48.5 °F 38.0 °F 29.83 in WSW 3.0 mph 10.4 mph 67 % 0.00 in
20:15 48.5 °F 38.4 °F 29.84 in WNW 7.4 mph 10.4 mph 68 % 0.00 in
20:20 48.4 °F 37.9 °F 29.83 in WSW 7.3 mph 13.0 mph 67 % 0.00 in
20:25 48.4 °F 37.9 °F 29.84 in West 6.3 mph 9.0 mph 67 % 0.00 in
20:30 48.3 °F 38.2 °F 29.84 in WSW 3.5 mph 9.2 mph 68 % 0.00 in
20:35 48.3 °F 38.2 °F 29.84 in NW 6.9 mph 11.5 mph 68 % 0.00 in
20:40 48.2 °F 37.8 °F 29.84 in West 4.2 mph 10.4 mph 67 % 0.00 in
20:45 48.1 °F 38.0 °F 29.84 in West 7.2 mph 15.0 mph 68 % 0.00 in
20:50 48.1 °F 38.0 °F 29.84 in SW 6.8 mph 15.0 mph 68 % 0.00 in
20:55 48.0 °F 37.9 °F 29.84 in West 7.2 mph 13.8 mph 68 % 0.00 in
21:00 47.9 °F 37.8 °F 29.84 in SW 7.6 mph 11.5 mph 68 % 0.00 in
21:05 47.8 °F 38.1 °F 29.85 in WNW 5.3 mph 11.5 mph 69 % 0.00 in
21:10 47.8 °F 38.1 °F 29.85 in WSW 6.9 mph 12.7 mph 69 % 0.00 in
21:15 47.7 °F 38.0 °F 29.85 in West 8.2 mph 13.8 mph 69 % 0.00 in
21:20 47.7 °F 38.0 °F 29.85 in West 4.1 mph 10.4 mph 69 % 0.00 in
21:25 47.7 °F 38.4 °F 29.85 in WSW 6.1 mph 14.0 mph 70 % 0.00 in
21:30 47.6 °F 38.3 °F 29.86 in WSW 7.2 mph 12.7 mph 70 % 0.00 in
21:35 47.6 °F 38.3 °F 29.85 in West 6.6 mph 10.4 mph 70 % 0.00 in
21:40 47.6 °F 38.3 °F 29.86 in West 9.2 mph 18.4 mph 70 % 0.00 in
21:45 47.6 °F 38.3 °F 29.86 in WNW 5.4 mph 9.0 mph 70 % 0.00 in
21:50 47.6 °F 38.3 °F 29.85 in NW 4.3 mph 11.5 mph 70 % 0.00 in
21:55 47.6 °F 38.3 °F 29.85 in SSW 4.3 mph 11.5 mph 70 % 0.00 in
22:00 47.6 °F 38.7 °F 29.85 in WSW 8.9 mph 18.4 mph 71 % 0.00 in
22:05 47.6 °F 39.0 °F 29.86 in West 4.7 mph 8.1 mph 72 % 0.00 in
22:10 47.5 °F 38.9 °F 29.86 in West 2.5 mph 5.0 mph 72 % 0.00 in
22:19 47.2 °F 37.5 °F 29.86 in WSW 7.1 mph 16.1 mph 69 % 0.00 in
22:22 47.2 °F 37.9 °F 29.62 in West 7.4 mph 13.8 mph 70 % 0.00 in
22:23 47.2 °F 37.9 °F 29.62 in West 6.2 mph 10.4 mph 70 % 0.00 in
22:26 47.1 °F 37.8 °F 29.86 in NW 8.4 mph 17.3 mph 70 % 0.00 in
22:30 47.1 °F 37.4 °F 29.86 in NW 4.9 mph 9.2 mph 69 % 0.00 in
22:34 47.1 °F 37.8 °F 29.85 in West 2.0 mph 4.6 mph 70 % 0.00 in
22:39 47.0 °F 37.7 °F 29.86 in West 7.3 mph 11.5 mph 70 % 0.00 in
22:44 47.0 °F 38.1 °F 29.86 in West 5.5 mph 13.0 mph 71 % 0.00 in
22:49 46.8 °F 37.2 °F 29.86 in WSW 9.9 mph 19.6 mph 69 % 0.00 in
22:54 46.7 °F 37.4 °F 29.86 in WNW 6.4 mph 10.4 mph 70 % 0.00 in
22:59 46.7 °F 37.4 °F 29.86 in WNW 3.9 mph 11.5 mph 70 % 0.00 in
23:04 46.6 °F 37.3 °F 29.85 in NW 7.0 mph 15.0 mph 70 % 0.00 in
23:09 46.5 °F 37.2 °F 29.85 in WNW 6.7 mph 16.0 mph 70 % 0.00 in
23:14 46.4 °F 37.1 °F 29.85 in West 2.6 mph 8.0 mph 70 % 0.00 in
23:16 46.4 °F 37.1 °F 29.85 in WNW 4.9 mph 11.0 mph 70 % 0.00 in
23:26 46.2 °F 37.3 °F 29.85 in West 6.2 mph 9.2 mph 71 % 0.00 in
23:31 46.1 °F 37.2 °F 29.85 in West 6.0 mph 22.0 mph 71 % 0.00 in
23:36 46.0 °F 37.1 °F 29.85 in West 9.0 mph 22.0 mph 71 % 0.00 in
23:41 46.0 °F 37.5 °F 29.85 in West 6.0 mph 18.0 mph 72 % 0.00 in
23:46 45.9 °F 37.4 °F 29.86 in WNW 8.0 mph 15.0 mph 72 % 0.00 in
23:51 45.9 °F 37.0 °F 29.86 in West 8.0 mph 21.0 mph 71 % 0.00 in
23:56 45.8 °F 37.3 °F 29.86 in West 9.5 mph 18.4 mph 72 % 0.00 in
Crab Meadow Weather
Compliments of Weather Underground - 3 mb

Script developed by  Jim McMurry - jmcmurry@mwt.net Adapted for the template by  Wim van der Kuil - Leuven-Template.eu

Extremes: A record low of - 128.6 degrees F was recorded at Vostok, Antarctica.